Effective Sunday, March 17, 2024, the National Weather Service National Data Buoy Center will discontinue its Dial-A-Buoy Interactive Voice Response system. For more information, see Service Change Notice 24-06 (PDF).

Station EINL1 - 8764314 - North of Eugene Island, LA Image indicating link to RSS feed of recent meteorological observations for station EINL1


Conditions at EINL1 as of
(1:30 pm CST)
1930 GMT on 03/02/2024:
     

Click on the graph icon in the table below to see a time series plot of the last five days of that observation.

5-day plot - Wind Direction Wind Direction (WDIR): E ( 80 deg true )
5-day plot - Wind Speed Wind Speed (WSPD): 2.9 kts
5-day plot - Wind Gust Wind Gust (GST): 5.1 kts
5-day plot - Atmospheric Pressure Atmospheric Pressure (PRES):30.06 in
5-day plot - Air Temperature Air Temperature (ATMP): 61.3 °F
5-day plot - Water Temperature Water Temperature (WTMP): 57.0 °F
5-day plot - Dew Point Dew Point (DEWP): 61.3 °F
5-day plot - Wind Speed at 10 Meters Wind Speed at 10 meters (WSPD10M): 3.9 kts
5-day plot - Wind Speed at 20 Meters Wind Speed at 20 meters (WSPD20M): 3.9 kts
5-day plot -  Wind Speed, Wind Gust and Atmospheric Pressure Combined plot of Wind Speed, Gust, and Air Pressure
NOS Water Level Observation Network Water Level
Previous observations
TIME
(CST)
5-day plot - Wind Direction
WDIR
 
5-day plot - Wind Speed
WSPD
kts
5-day plot - Wind Gust
GST
kts
5-day plot - Wave Height
WVHT
ft
5-day plot - Dominant Wave Period
DPD
sec
5-day plot - Average Wave Period
APD
sec
5-day plot - Mean Wave Direction
MWD
 
5-day plot - Atmospheric Pressure
PRES
in
5-day plot - Pressure Tendency
PTDY
in
5-day plot - Air Temperature
ATMP
°F
5-day plot - Water Temperature
WTMP
°F
5-day plot - Dew Point
DEWP
°F
5-day plot - Salinity
SAL
psu
5-day plot - Visibility
VIS
nmi
5-day plot - Tide (above MLLW)
TIDE
ft
2024-03-02 01:24 pmENE 2.9 4.1----30.06- 61.5 57.7 61.5---
2024-03-02 01:18 pmENE 5.1 5.1----30.06- 61.3 58.1 61.3---
2024-03-02 01:12 pm E 5.1 5.1----30.07- 61.2 57.6 61.2---
2024-03-02 01:06 pm E 5.1 6.0----30.07- 61.0 57.2 61.0---
2024-03-02 01:00 pm NE 5.1 5.1----30.07-0.05 60.4 57.6 60.4---
2024-03-02 12:54 pm NE 4.1 4.1----30.07- 60.4 57.6 60.4---
2024-03-02 12:48 pm NE 4.1 4.1----30.07- 60.4 57.6 60.4---
2024-03-02 12:42 pm NE 4.1 5.1----30.08- 59.9 57.6 59.9---
2024-03-02 12:36 pmENE 5.1 6.0----30.08- 59.7 57.4 59.7---
2024-03-02 12:30 pm E 5.1 6.0----30.08- 59.7 57.4 59.7---
2024-03-02 12:24 pm E 6.0 6.0----30.09- 59.2 57.4 59.2---
2024-03-02 12:18 pm E 5.1 6.0----30.09- 59.0 57.2 59.0---
2024-03-02 12:12 pm E 5.1 5.1----30.10- 58.8 57.2 58.8---
2024-03-02 12:06 pm E 4.1 5.1----30.10- 58.8 56.8 58.8---
2024-03-02 12:00 pm E 5.1 6.0----30.10+0.00 58.8 56.8 58.8---
2024-03-02 11:54 am E 5.1 6.0----30.11- 58.8 56.7 58.8---
2024-03-02 11:48 am E 6.0 6.0----30.11- 58.6 56.8 58.6---
2024-03-02 11:42 am E 5.1 5.1----30.11- 58.6 56.8 58.6---
2024-03-02 11:36 am E 5.1 6.0----30.11- 58.6 57.0 58.6---
2024-03-02 11:30 am E 6.0 7.0----30.11- 58.6 57.2 58.6---
2024-03-02 11:24 am E 6.0 6.0----30.11- 58.6 56.8 58.6---
2024-03-02 11:18 am E 5.1 5.1----30.11- 58.6 56.8 58.6---
2024-03-02 11:12 amENE 5.1 5.1----30.11- 58.6 56.8 58.6---
2024-03-02 11:06 amENE 4.1 5.1----30.11- 58.5 56.8 58.5---
2024-03-02 11:00 am E 4.1 5.1----30.11+0.02 58.3 56.8 58.3---
2024-03-02 10:54 amENE 5.1 5.1----30.12- 58.1 56.8 58.1---
2024-03-02 10:48 amENE 4.1 5.1----30.12- 57.9 56.7 57.9---
2024-03-02 10:42 am NE 4.1 5.1----30.12- 57.9 56.7 57.9---
2024-03-02 10:36 am NE 2.9 4.1----30.12- 57.9 56.7 57.9---
2024-03-02 10:30 amENE 4.1 5.1----30.12- 57.7 56.7 57.7---
2024-03-02 10:24 amENE 5.1 5.1----30.12- 57.7 56.7 57.7---
2024-03-02 10:18 amENE 5.1 8.0----30.12- 57.7 56.7 57.7---
2024-03-02 10:12 am E 7.0 8.0----30.12- 57.6 56.7 57.6---
2024-03-02 10:06 am E 7.0 7.0----30.12- 57.7 56.7 57.7---
2024-03-02 10:00 amENE 7.0 7.0----30.12+0.03 57.7 56.5 57.7---
2024-03-02 09:54 amENE 6.0 6.0----30.11- 57.6 56.5 57.6---
2024-03-02 09:48 amENE 6.0 8.0----30.11- 57.4 56.5 57.4---
2024-03-02 09:42 amENE 8.0 8.0----30.11- 57.6 56.5 57.6---
2024-03-02 09:36 amENE 7.0 8.0----30.11- 57.4 56.5 57.4---
2024-03-02 09:30 amENE 8.0 8.0----30.11-- 56.5----
2024-03-02 09:24 am NE 7.0 7.0----30.11-- 56.5----
2024-03-02 09:18 amNNE 5.1 8.0----30.11- 57.6 56.5 57.6---
2024-03-02 09:12 amNNE 8.0 8.0----30.09- 57.7 56.5 57.7---
2024-03-02 09:06 amNNE 6.0 6.0----30.10- 57.4 56.3 57.4---
2024-03-02 09:00 amNNE 5.1 7.0----30.11+0.03 57.4 56.3 57.4---
2024-03-02 08:54 amENE 6.0 8.0----30.11- 57.4 56.3 57.4---
2024-03-02 08:48 amENE 8.9 9.9----30.11- 57.4 56.3 57.4---
2024-03-02 08:42 amENE 8.0 8.9----30.11- 57.4 56.3 57.4---
2024-03-02 08:36 amENE 6.0 7.0----30.11- 57.2 56.3 57.2---
2024-03-02 08:30 amENE 5.1 7.0----30.11- 57.2 56.3 57.2---
2024-03-02 08:24 am NE 7.0 8.0----30.10- 57.2 56.3 57.2---
2024-03-02 08:18 am NE 7.0 7.0----30.10- 57.2 56.3 57.2---
2024-03-02 08:12 am NE 7.0 7.0----30.10- 57.2 56.3 57.2---
2024-03-02 08:06 am NE 6.0 8.0----30.10- 57.2 56.3 57.2---
2024-03-02 08:00 am NE 8.0 8.9----30.09+0.04 57.0 56.3 57.0---
2024-03-02 07:54 am NE 8.0 8.0----30.09- 57.0 56.3 57.0---
2024-03-02 07:48 amNNE 6.0 6.0----30.09- 57.2 56.3 57.2---
2024-03-02 07:42 amNNE 5.1 6.0----30.09- 57.2 56.3 57.2---
2024-03-02 07:36 amNNE 5.1 5.1----30.09- 57.0 56.3 57.0---
2024-03-02 07:30 amNNE 6.0 7.0----30.09- 57.0 56.3 57.0---
2024-03-02 07:24 amNNE 7.0 7.0----30.09- 57.0 56.3 57.0---
2024-03-02 07:18 amNNE 7.0 7.0----30.09- 56.8 56.3 56.8---
2024-03-02 07:12 amNNE 5.1 6.0----30.09- 56.8 56.3 56.8---
2024-03-02 07:06 am NE 5.1 5.1----30.08- 56.8 56.3 56.8---
2024-03-02 07:00 am NE 5.1 5.1----30.09+0.06 56.8 56.3 56.8---
2024-03-02 06:54 amENE 5.1 6.0----30.08- 56.8 56.3 56.8---
2024-03-02 06:48 am NE 6.0 7.0----30.08-- 56.3----
2024-03-02 06:42 am NE 7.0 8.0----30.08-- 56.3----
2024-03-02 06:36 am NE 8.0 8.0----30.08-- 56.3----
2024-03-02 06:30 am NE 7.0 7.0----30.08- 56.8 56.3 56.8---
2024-03-02 06:24 amENE 7.0 7.0----30.08- 56.8 56.3 56.8---
2024-03-02 06:18 am NE 6.0 7.0----30.08- 56.8 56.3 56.8---
2024-03-02 06:12 amNNE 6.0 6.0----30.07- 56.8 56.3 56.8---
2024-03-02 06:06 am NE 6.0 6.0----30.07- 56.7 56.3 56.7---
2024-03-02 06:00 am NE 5.1 6.0----30.07+0.03 56.8 56.3 56.8---
2024-03-02 05:54 am NE 5.1 6.0----30.07- 56.8 56.3 56.8---
2024-03-02 05:48 am NE 5.1 6.0----30.07- 56.8 56.3 56.8---
2024-03-02 05:42 amNNE 5.1 6.0----30.07- 56.8 56.3 56.8---
2024-03-02 05:36 am NE 5.1 6.0----30.06- 56.8 56.3 56.8---
2024-03-02 05:30 am-------30.06-------
2024-03-02 05:24 am-------30.06-------
2024-03-02 05:18 amENE 4.1 5.1----30.06- 57.0 56.3 57.0---
2024-03-02 05:12 am E 6.0 7.0----30.05- 57.0 56.3 57.0---
2024-03-02 05:06 am E 5.1 6.0----30.05- 56.8 56.3 56.8---
2024-03-02 05:00 am NE 5.1 6.0----30.05+0.00- 56.3----
2024-03-02 04:54 am NE 5.1 6.0----30.05-- 56.3----
2024-03-02 04:48 am---------- 56.3----
2024-03-02 04:42 am---------- 56.3----
2024-03-02 04:36 am---------- 56.3----
2024-03-02 04:30 amENE 5.1 7.0----30.03- 56.8 56.3 56.8---
2024-03-02 04:24 am NE 7.0 8.0----30.03- 56.8 56.3 56.8---
2024-03-02 04:18 am NE 7.0 8.0----30.03-- 56.3----
2024-03-02 04:12 am NE 7.0 8.0----30.03-- 56.3----
2024-03-02 04:06 amNNE 6.0 6.0----30.03-- 56.3----
2024-03-02 04:00 am NE 6.0 6.0----30.03-0.03 56.7 56.3 56.7---
2024-03-02 03:54 amENE 6.0 6.0----30.03- 56.7 56.3 56.7---
2024-03-02 03:48 amENE 5.1 6.0----30.03- 56.5 56.3 56.5---
2024-03-02 03:42 am NE 6.0 7.0----30.03- 56.7 56.3 56.7---
2024-03-02 03:36 am NE 6.0 7.0----30.03- 56.7 56.3 56.7---
2024-03-02 03:30 amNNE 6.0 6.0----30.04- 56.7 56.3 56.7---
2024-03-02 03:24 amNNE 6.0 7.0----30.04- 56.7 56.3 56.7---
2024-03-02 03:18 amNNE 6.0 6.0----30.04- 56.8 56.3 56.8---
2024-03-02 03:12 amNNE 6.0 8.0----30.05- 56.8 56.3 56.8---
2024-03-02 03:06 amNNE 7.0 8.0----30.05- 56.8 56.3 56.8---
2024-03-02 03:00 amNNE 6.0 7.0----30.05-0.03 56.8 56.3 56.8---
2024-03-02 02:54 am NE 6.0 7.0----30.05- 56.8 56.3 56.8---
2024-03-02 02:48 amENE 7.0 8.0----30.05- 56.8 56.3 56.8---
2024-03-02 02:42 amENE 7.0 8.0----30.05- 56.8 56.3 56.8---
2024-03-02 02:36 am NE 7.0 8.0----30.05- 56.8 56.3 56.8---
2024-03-02 02:30 am NE 7.0 8.0----30.05- 56.8 56.3 56.8---
2024-03-02 02:24 am NE 6.0 7.0----30.06- 56.8 56.3 56.8---
2024-03-02 02:18 am NE 6.0 7.0----30.06- 57.0 56.3 57.0---
2024-03-02 02:12 amENE 6.0 8.0----30.06- 57.2 56.3 57.2---
2024-03-02 02:06 am E 7.0 8.9----30.06- 57.2 56.3 57.2---
2024-03-02 02:00 am E 8.0 11.1----30.05-0.04 57.2 56.3 57.2---
2024-03-02 01:54 amESE 8.9 11.1----30.05- 57.2 56.3 57.2---
2024-03-02 01:48 am E 8.0 8.9----30.05- 56.7 56.3 56.7---
2024-03-02 01:42 am E 8.9 11.1----30.05- 56.7 56.3 56.7---
2024-03-02 01:36 am E 8.9 9.9----30.05- 56.5 56.3 56.5---
2024-03-02 01:30 am E 7.0 8.0----30.06- 56.5- 56.5---
2024-03-02 01:24 am NE 7.0 8.0----30.06- 56.5- 56.5---
2024-03-02 01:18 am NE 7.0 8.0----30.06- 56.7 56.5 56.7---
2024-03-02 01:12 am E 8.0 8.9----30.06- 56.7 56.5 56.7---
2024-03-02 01:06 am E 8.0 9.9----30.06- 56.7 56.5 56.7---
2024-03-02 01:00 am E 9.9 9.9----30.06-0.03 56.7 56.5 56.7---
2024-03-02 12:54 am E 8.0 8.9----30.06- 56.7 56.5 56.7---
2024-03-02 12:48 am E 8.0 8.9----30.06- 56.5 56.7 56.5---
2024-03-02 12:42 am E 7.0 8.0----30.07- 56.3 56.7 56.3---
2024-03-02 12:36 amENE 5.1 6.0----30.08- 56.3 56.7 56.3---
2024-03-02 12:30 amENE 5.1 6.0----30.08- 56.5 56.7 56.5---
2024-03-02 12:24 am NE 5.1 5.1----30.08- 56.5 56.7 56.5---
2024-03-02 12:18 amNNE 5.1 6.0----30.08- 56.5- 56.5---
2024-03-02 12:12 amENE 5.1 8.0----30.08- 56.7- 56.7---
2024-03-02 12:06 am E 8.0 8.0----30.07- 56.5- 56.5---
2024-03-02 12:00 am E 6.0 7.0----30.08-0.02 56.7 56.7 56.7---
2024-03-01 11:54 pm E 7.0 8.0----30.08- 56.5 56.7 56.5---
2024-03-01 11:48 pm E 8.0 8.9----30.08- 56.7 56.7 56.7---
2024-03-01 11:42 pmESE 7.0 8.0----30.08- 56.7 56.7 56.7---
2024-03-01 11:36 pmESE 5.1 5.1----30.09- 56.7 56.7 56.7---
2024-03-01 11:30 pmESE 4.1 4.1----30.09- 56.7 56.7 56.7---
2024-03-01 11:24 pmENE 2.9 2.9----30.09- 56.7 56.7 56.7---
2024-03-01 11:18 pmENE 1.9 1.9----30.09- 56.7 56.8 56.7---
2024-03-01 11:12 pmNNE 1.9 2.9----30.09- 56.7 56.8 56.7---
2024-03-01 11:06 pmENE 2.9 5.1----30.09- 56.7 56.8 56.7---
2024-03-01 11:00 pm E 5.1 6.0----30.09+0.01 56.7 56.8 56.7---
2024-03-01 10:54 pm E 4.1 5.1----30.09- 56.7 56.8 56.7---
2024-03-01 10:48 pm E 5.1 7.0----30.08- 56.7 56.8 56.7---
2024-03-01 10:42 pmNNE 7.0 8.0----30.08- 56.7 56.8 56.7---
2024-03-01 10:36 pm N 7.0 8.0----30.09- 56.8 56.8 56.8---
2024-03-01 10:30 pmNNE 7.0 8.9----30.08- 56.8 56.8 56.8---
2024-03-01 10:24 pmNNE 7.0 8.0----30.08- 56.8 56.8 56.8---
2024-03-01 10:18 pmNNE 8.0 9.9----30.09- 56.8 56.8 56.8---
2024-03-01 10:12 pmNNE 8.9 11.1----30.09- 56.8 56.8 56.8---
2024-03-01 10:06 pmNNE 8.9 9.9----30.09- 56.8 56.8 56.8---
2024-03-01 10:00 pmNNE 8.9 9.9----30.09+0.02 56.8 56.8 56.8---
2024-03-01 09:54 pmNNE 8.0 8.9----30.09- 56.8 56.8 56.8---
2024-03-01 09:48 pm NE 7.0 7.0----30.09- 57.0 56.8 57.0---
2024-03-01 09:42 pm NE 6.0 7.0----30.09- 57.0 56.8 57.0---
2024-03-01 09:36 pmENE 6.0 7.0----30.09- 57.0 57.0 57.0---
2024-03-01 09:30 pmENE 6.0 6.0----30.09- 57.2 57.0 57.2---
2024-03-01 09:24 pmENE 7.0 7.0----30.09- 57.2 57.0 57.2---
2024-03-01 09:18 pm NE 6.0 6.0----30.09- 57.2 57.0 57.2---
2024-03-01 09:12 pm NE 5.1 5.1----30.10- 57.2 57.0 57.2---
2024-03-01 09:06 pmENE 5.1 5.1----30.10- 57.2 57.0 57.2---
2024-03-01 09:00 pm NE 5.1 7.0----30.10+0.03 57.2 57.0 57.2---
2024-03-01 08:54 pmENE 6.0 6.0----30.09- 57.2 57.0 57.2---
2024-03-01 08:48 pmENE 5.1 6.0----30.09- 57.2 57.0 57.2---
2024-03-01 08:42 pmENE 5.1 7.0----30.09- 57.4 57.0 57.4---
2024-03-01 08:36 pm E 5.1 6.0----30.09- 57.2 57.0 57.2---
2024-03-01 08:30 pm E 5.1 6.0----30.09- 57.2 57.2 57.0---
2024-03-01 08:24 pm NE 5.1 6.0----30.09- 57.4 57.2 57.2---
2024-03-01 08:18 pmNNE 6.0 8.0----30.09- 57.4 57.2 57.2---
2024-03-01 08:12 pmNNE 6.0 8.0----30.08- 57.4 57.2 57.2---
2024-03-01 08:06 pmNNE 8.0 8.0----30.08- 57.4 57.2 57.2---
2024-03-01 08:00 pmNNE 7.0 9.9----30.07+0.02 57.4 57.2 57.2---
2024-03-01 07:54 pmNNE 7.0 8.9----30.07- 57.4 57.2 57.4---
2024-03-01 07:48 pmNNE 6.0 8.0----30.07- 57.6 57.2 57.4---
2024-03-01 07:42 pm NE 8.0 8.9----30.06- 57.6 57.2 57.4---
2024-03-01 07:36 pmENE 8.0 8.9----30.06- 57.6 57.2 57.2---
2024-03-01 07:30 pmENE 8.0 8.9----30.06- 57.6 57.2 57.2---
2024-03-01 07:24 pmENE 6.0 8.0----30.07- 57.6 57.2 57.4---
2024-03-01 07:18 pmENE 7.0 7.0----30.07- 57.6 57.4 57.4---
2024-03-01 07:12 pmENE 7.0 8.0----30.07- 57.7 57.4 57.6---
2024-03-01 07:06 pmENE 6.0 6.0----30.06- 57.9 57.4 57.9---
2024-03-01 07:00 pm E 6.0 8.0----30.07+0.01 57.9 57.4 57.9---
2024-03-01 06:54 pmENE 7.0 7.0----30.06- 57.7 57.4 57.7---
2024-03-01 06:48 pmENE 6.0 7.0----30.06- 57.7 57.4 57.7---
2024-03-01 06:42 pm NE 5.1 6.0----30.07- 57.7 57.4 57.7---
2024-03-01 06:36 pmENE 6.0 7.0----30.06- 57.7 57.6 57.7---
2024-03-01 06:30 pmENE 7.0 7.0----30.06- 58.1 57.6 58.1---
2024-03-01 06:24 pm NE 6.0 7.0----30.07- 58.3 57.6 58.3---
2024-03-01 06:18 pmNNE 8.0 8.9----30.06- 58.3 57.6 58.3---
2024-03-01 06:12 pmNNE 6.0 8.0----30.06- 58.3 57.6 58.3---
2024-03-01 06:06 pmNNE 8.0 8.0----30.06- 58.3 57.6 58.3---
2024-03-01 06:00 pm N 8.9 9.9----30.07+0.02 58.1 57.4 58.1---
2024-03-01 05:54 pmNNE 5.1 6.0----30.07- 57.9 57.4 57.9---
2024-03-01 05:48 pmENE 5.1 5.1----30.06- 57.9 57.6 57.9---
2024-03-01 05:42 pmENE 5.1 5.1----30.06- 58.1 57.6 58.1---
2024-03-01 05:36 pmENE 5.1 7.0----30.05- 58.1 57.4 58.1---
2024-03-01 05:30 pmENE 7.0 7.0----30.05- 58.1 57.4 58.1---
2024-03-01 05:24 pmENE 6.0 6.0----30.05- 57.9 57.6 57.9---
2024-03-01 05:18 pm NE 5.1 7.0----30.06- 57.9 57.6 57.7---
2024-03-01 05:12 pm NE 7.0 8.0----30.05- 57.9 57.6 57.7---
2024-03-01 05:06 pmNNE 7.0 8.0----30.06- 57.7 57.6 57.7---
2024-03-01 05:00 pm NE 5.1 6.0----30.06-0.01 57.7 57.6 57.7---
2024-03-01 04:54 pm NE 5.1 6.0----30.06- 57.7 57.6 57.7---
2024-03-01 04:48 pmENE 5.1 6.0----30.06- 57.6 57.6 57.6---
2024-03-01 04:42 pmENE 5.1 7.0----30.06- 57.6 57.6 57.6---
2024-03-01 04:36 pmENE 6.0 8.0----30.06- 57.4 57.7 57.4---
2024-03-01 04:30 pm E 7.0 7.0----30.05- 57.6 57.7 57.6---
2024-03-01 04:24 pm NE 7.0 7.0----30.04- 58.3 57.7 58.1---
2024-03-01 04:18 pm NE 5.1 6.0----30.05- 58.3 57.6 58.1---
2024-03-01 04:12 pm NE 5.1 6.0----30.05- 58.3 57.6 57.9---
2024-03-01 04:06 pm NE 5.1 6.0----30.05- 58.3 57.7 57.7---
2024-03-01 04:00 pmNNE 5.1 6.0----30.06-0.01 58.1 57.6 57.7---
2024-03-01 03:54 pm NE 5.1 7.0----30.06- 57.9 57.6 57.6---
2024-03-01 03:48 pmNNE 7.0 8.9----30.06- 57.7 57.7 57.6---
2024-03-01 03:42 pm N 8.0 9.9----30.06- 57.9 57.6 57.6---
2024-03-01 03:36 pm N 8.0 8.9----30.06- 57.9 57.6 57.6---
2024-03-01 03:30 pm NE 4.1 6.0----30.06- 58.1 57.7 57.7---
2024-03-01 03:24 pm N 5.1 6.0----30.07- 57.9 57.9 57.6---
2024-03-01 03:18 pmNNE 4.1 6.0----30.06- 57.9 58.1 57.7---
2024-03-01 03:12 pm NE 5.1 6.0----30.06- 57.9 58.3 57.6---
2024-03-01 03:06 pmNNE 5.1 7.0----30.05- 57.6 58.3 57.4---
2024-03-01 03:00 pm NE 7.0 8.9----30.05-0.04 57.0 58.1 57.0---
2024-03-01 02:54 pm NE 8.9 9.9----30.04- 56.7 58.1 56.7---
2024-03-01 02:48 pmNNE 8.9 12.0----30.05- 56.7 58.3 56.7---
2024-03-01 02:42 pm N 9.9 12.0----30.05- 56.5 58.6 56.5---
2024-03-01 02:36 pm N 9.9 11.1----30.05- 56.1 58.3 56.1---
2024-03-01 02:30 pm N 9.9 12.0----30.05- 56.1 58.5 56.1---
2024-03-01 02:24 pm N 9.9 13.0----30.06- 56.1 58.8 56.1---
2024-03-01 02:18 pm N 11.1 12.0----30.06- 56.1 59.0 56.1---
2024-03-01 02:12 pm N 11.1 14.0----30.06- 56.3 59.0 56.3---
2024-03-01 02:06 pm N 13.0 15.0----30.06- 56.1 58.5 56.1---
2024-03-01 02:00 pm N 13.0 15.0----30.07-0.03 55.9 57.9 55.9---
2024-03-01 01:54 pm N 11.1 15.9----30.07- 55.9 58.3 55.9---